Year,Month,Day,Hour,Minute,Value (Times are PST for temperature in C)
2015,01,31,00,00,4.00
2015,01,31,00,01,4.00
2015,01,31,00,02,4.00
2015,01,31,00,03,4.00
2015,01,31,00,04,4.00
2015,01,31,00,05,4.00
2015,01,31,00,06,4.00
2015,01,31,00,07,4.00
2015,01,31,00,08,3.90
2015,01,31,00,09,4.00
2015,01,31,00,10,4.00
2015,01,31,00,11,3.90
2015,01,31,00,12,3.90
2015,01,31,00,13,3.90
2015,01,31,00,14,3.90
2015,01,31,00,15,3.90
2015,01,31,00,16,3.90
2015,01,31,00,17,3.90
2015,01,31,00,18,3.90
2015,01,31,00,19,3.90
2015,01,31,00,20,3.90
2015,01,31,00,21,3.90
2015,01,31,00,22,3.90
2015,01,31,00,23,3.90
2015,01,31,00,24,3.90
2015,01,31,00,25,3.90
2015,01,31,00,26,3.90
2015,01,31,00,27,3.90
2015,01,31,00,28,3.90
2015,01,31,00,29,3.80
2015,01,31,00,30,3.80
2015,01,31,00,31,3.80
2015,01,31,00,32,3.80
2015,01,31,00,33,3.90
2015,01,31,00,34,3.80
2015,01,31,00,35,3.80
2015,01,31,00,36,3.80
2015,01,31,00,37,3.80
2015,01,31,00,38,3.90
2015,01,31,00,39,3.90
2015,01,31,00,40,3.90
2015,01,31,00,41,3.90
2015,01,31,00,42,3.90
2015,01,31,00,43,3.90
2015,01,31,00,44,3.90
2015,01,31,00,45,3.90
2015,01,31,00,46,3.90
2015,01,31,00,47,3.90
2015,01,31,00,48,3.90
2015,01,31,00,49,3.90
2015,01,31,00,50,3.90
2015,01,31,00,51,3.90
2015,01,31,00,52,3.90
2015,01,31,00,53,4.00
2015,01,31,00,54,4.00
2015,01,31,00,55,4.00
2015,01,31,00,56,4.10
2015,01,31,00,57,4.10
2015,01,31,00,58,4.10
2015,01,31,00,59,4.10
2015,01,31,01,00,4.10
2015,01,31,01,01,4.10
2015,01,31,01,02,4.20
2015,01,31,01,03,4.20
2015,01,31,01,04,4.20
2015,01,31,01,05,4.20
2015,01,31,01,06,4.20
2015,01,31,01,07,4.20
2015,01,31,01,08,4.20
2015,01,31,01,09,4.20
2015,01,31,01,10,4.20
2015,01,31,01,11,4.20
2015,01,31,01,12,4.20
2015,01,31,01,13,4.20
2015,01,31,01,14,4.20
2015,01,31,01,15,4.10
2015,01,31,01,16,4.10
2015,01,31,01,17,4.10
2015,01,31,01,18,4.10
2015,01,31,01,19,4.10
2015,01,31,01,20,4.10
2015,01,31,01,21,4.10
2015,01,31,01,22,4.10
2015,01,31,01,23,4.10
2015,01,31,01,24,4.10
2015,01,31,01,25,4.10
2015,01,31,01,26,4.10
2015,01,31,01,27,4.10
2015,01,31,01,28,4.10
2015,01,31,01,29,4.10
2015,01,31,01,30,4.10
2015,01,31,01,31,4.10
2015,01,31,01,32,4.10
2015,01,31,01,33,4.10
2015,01,31,01,34,4.10
2015,01,31,01,35,4.10
2015,01,31,01,36,4.10
2015,01,31,01,37,4.10
2015,01,31,01,38,4.10
2015,01,31,01,39,4.10
2015,01,31,01,40,4.10
2015,01,31,01,41,4.10
2015,01,31,01,42,4.00
2015,01,31,01,43,4.00
2015,01,31,01,44,4.00
2015,01,31,01,45,3.90
2015,01,31,01,46,3.90
2015,01,31,01,47,3.90
2015,01,31,01,48,3.90
2015,01,31,01,49,3.90
2015,01,31,01,50,3.80
2015,01,31,01,51,3.80
2015,01,31,01,52,3.80
2015,01,31,01,53,3.80
2015,01,31,01,54,3.80
2015,01,31,01,55,3.80
2015,01,31,01,56,3.80
2015,01,31,01,57,3.80
2015,01,31,01,58,3.80
2015,01,31,01,59,3.80
2015,01,31,02,00,3.80
2015,01,31,02,01,3.80
2015,01,31,02,02,3.80
2015,01,31,02,03,3.80
2015,01,31,02,04,3.80
2015,01,31,02,05,3.80
2015,01,31,02,06,3.80
2015,01,31,02,07,3.80
2015,01,31,02,08,3.80
2015,01,31,02,09,3.80
2015,01,31,02,10,3.80
2015,01,31,02,11,3.80
2015,01,31,02,12,3.80
2015,01,31,02,13,3.80
2015,01,31,02,14,3.80
2015,01,31,02,15,3.80
2015,01,31,02,16,3.70
2015,01,31,02,17,3.70
2015,01,31,02,18,3.70
2015,01,31,02,19,3.70
2015,01,31,02,20,3.70
2015,01,31,02,21,3.70
2015,01,31,02,22,3.60
2015,01,31,02,23,3.60
2015,01,31,02,24,3.60
2015,01,31,02,25,3.60
2015,01,31,02,26,3.60
2015,01,31,02,27,3.60
2015,01,31,02,28,3.60
2015,01,31,02,29,3.50
2015,01,31,02,30,3.50
2015,01,31,02,31,3.50
2015,01,31,02,32,3.50
2015,01,31,02,33,3.40
2015,01,31,02,34,3.40
2015,01,31,02,35,3.40
2015,01,31,02,36,3.40
2015,01,31,02,37,3.40
2015,01,31,02,38,3.40
2015,01,31,02,39,3.30
2015,01,31,02,40,3.30
2015,01,31,02,41,3.30
2015,01,31,02,42,3.30
2015,01,31,02,43,3.20
2015,01,31,02,44,3.20
2015,01,31,02,45,3.20
2015,01,31,02,46,3.20
2015,01,31,02,47,3.20
2015,01,31,02,48,3.20
2015,01,31,02,49,3.20
2015,01,31,02,50,3.20
2015,01,31,02,51,3.20
2015,01,31,02,52,3.20
2015,01,31,02,53,3.20
2015,01,31,02,54,3.20
2015,01,31,02,55,3.30
2015,01,31,02,56,3.30
2015,01,31,02,57,3.30
2015,01,31,02,58,3.30
2015,01,31,02,59,3.30
2015,01,31,03,00,3.30
2015,01,31,03,01,3.30
2015,01,31,03,02,3.30
2015,01,31,03,03,3.20
2015,01,31,03,04,3.20
2015,01,31,03,05,3.20
2015,01,31,03,06,3.20
2015,01,31,03,07,3.20
2015,01,31,03,08,3.20
2015,01,31,03,09,3.20
2015,01,31,03,10,3.20
2015,01,31,03,11,3.20
2015,01,31,03,12,3.30
2015,01,31,03,13,3.30
2015,01,31,03,14,3.30
2015,01,31,03,15,3.30
2015,01,31,03,16,3.40
2015,01,31,03,17,3.40
2015,01,31,03,18,3.40
2015,01,31,03,19,3.40
2015,01,31,03,20,3.40
2015,01,31,03,21,3.40
2015,01,31,03,22,3.40
2015,01,31,03,23,3.40
2015,01,31,03,24,3.40
2015,01,31,03,25,3.40
2015,01,31,03,26,3.40
2015,01,31,03,27,3.40
2015,01,31,03,28,3.40
2015,01,31,03,29,3.40
2015,01,31,03,30,3.50
2015,01,31,03,31,3.50
2015,01,31,03,32,3.50
2015,01,31,03,33,3.50
2015,01,31,03,34,3.50
2015,01,31,03,35,3.40
2015,01,31,03,36,3.40
2015,01,31,03,37,3.40
2015,01,31,03,38,3.50
2015,01,31,03,39,3.40
2015,01,31,03,40,3.40
2015,01,31,03,41,3.50
2015,01,31,03,42,3.50
2015,01,31,03,43,3.50
2015,01,31,03,44,3.50
2015,01,31,03,45,3.50
2015,01,31,03,46,3.50
2015,01,31,03,47,3.50
2015,01,31,03,48,3.50
2015,01,31,03,49,3.50
2015,01,31,03,50,3.60
2015,01,31,03,51,3.60
2015,01,31,03,52,3.60
2015,01,31,03,53,3.60
2015,01,31,03,54,3.60
2015,01,31,03,55,3.60
2015,01,31,03,56,3.60
2015,01,31,03,57,3.60
2015,01,31,03,58,3.60
2015,01,31,03,59,3.60
2015,01,31,04,00,3.60
2015,01,31,04,01,3.70
2015,01,31,04,02,3.70
2015,01,31,04,03,3.70
2015,01,31,04,04,3.70
2015,01,31,04,05,3.70
2015,01,31,04,06,3.70
2015,01,31,04,07,3.70
2015,01,31,04,08,3.70
2015,01,31,04,09,3.70
2015,01,31,04,10,3.70
2015,01,31,04,11,3.70
2015,01,31,04,12,3.70
2015,01,31,04,13,3.70
2015,01,31,04,14,3.70
2015,01,31,04,15,3.70
2015,01,31,04,16,3.70
2015,01,31,04,17,3.70
2015,01,31,04,18,3.70
2015,01,31,04,19,3.60
2015,01,31,04,20,3.60
2015,01,31,04,21,3.60
2015,01,31,04,22,3.60
2015,01,31,04,23,3.60
2015,01,31,04,24,3.60
2015,01,31,04,25,3.60
2015,01,31,04,26,3.60
2015,01,31,04,27,3.60
2015,01,31,04,28,3.60
2015,01,31,04,29,3.60
2015,01,31,04,30,3.60
2015,01,31,04,31,3.60
2015,01,31,04,32,3.60
2015,01,31,04,33,3.60
2015,01,31,04,34,3.60
2015,01,31,04,35,3.60
2015,01,31,04,36,3.60
2015,01,31,04,37,3.60
2015,01,31,04,38,3.70
2015,01,31,04,39,3.70
2015,01,31,04,40,3.70
2015,01,31,04,41,3.70
2015,01,31,04,42,3.70
2015,01,31,04,43,3.70
2015,01,31,04,44,3.70
2015,01,31,04,45,3.70
2015,01,31,04,46,3.70
2015,01,31,04,47,3.70
2015,01,31,04,48,3.70
2015,01,31,04,49,3.70
2015,01,31,04,50,3.70
2015,01,31,04,51,3.80
2015,01,31,04,52,3.80
2015,01,31,04,53,3.80
2015,01,31,04,54,3.80
2015,01,31,04,55,3.80
2015,01,31,04,56,3.80
2015,01,31,04,57,3.80
2015,01,31,04,58,3.80
2015,01,31,04,59,3.80
2015,01,31,05,00,3.80
2015,01,31,05,01,3.80
2015,01,31,05,02,3.80
2015,01,31,05,03,3.90
2015,01,31,05,04,3.90
2015,01,31,05,05,3.90
2015,01,31,05,06,3.90
2015,01,31,05,07,3.90
2015,01,31,05,08,3.90
2015,01,31,05,09,3.90
2015,01,31,05,10,3.90
2015,01,31,05,11,3.90
2015,01,31,05,12,3.90
2015,01,31,05,13,3.90
2015,01,31,05,14,3.90
2015,01,31,05,15,3.90
2015,01,31,05,16,3.90
2015,01,31,05,17,3.90
2015,01,31,05,18,3.90
2015,01,31,05,19,3.90
2015,01,31,05,20,4.00
2015,01,31,05,21,4.00
2015,01,31,05,22,4.00
2015,01,31,05,23,4.00
2015,01,31,05,24,4.00
2015,01,31,05,25,4.00
2015,01,31,05,26,4.00
2015,01,31,05,27,4.00
2015,01,31,05,28,4.00
2015,01,31,05,29,4.10
2015,01,31,05,30,4.10
2015,01,31,05,31,4.10
2015,01,31,05,32,4.10
2015,01,31,05,33,4.10
2015,01,31,05,34,4.10
2015,01,31,05,35,4.10
2015,01,31,05,36,4.10
2015,01,31,05,37,4.10
2015,01,31,05,38,4.10
2015,01,31,05,39,4.10
2015,01,31,05,40,4.10
2015,01,31,05,41,4.10
2015,01,31,05,42,4.10
2015,01,31,05,43,4.10
2015,01,31,05,44,4.10
2015,01,31,05,45,4.10
2015,01,31,05,46,4.20
2015,01,31,05,47,4.20
2015,01,31,05,48,4.20
2015,01,31,05,49,4.20
2015,01,31,05,50,4.20
2015,01,31,05,51,4.20
2015,01,31,05,52,4.20
2015,01,31,05,53,4.20
2015,01,31,05,54,4.20
2015,01,31,05,55,4.20
2015,01,31,05,56,4.20
2015,01,31,05,57,4.20
2015,01,31,05,58,4.20
2015,01,31,05,59,4.20
2015,01,31,06,00,4.30
2015,01,31,06,01,4.30
2015,01,31,06,02,4.30
2015,01,31,06,03,4.30
2015,01,31,06,04,4.30
2015,01,31,06,05,4.30
2015,01,31,06,06,4.30
2015,01,31,06,07,4.30
2015,01,31,06,08,4.30
2015,01,31,06,09,4.30
2015,01,31,06,10,4.30
2015,01,31,06,11,4.40
2015,01,31,06,12,4.30
2015,01,31,06,13,4.30
2015,01,31,06,14,4.40
2015,01,31,06,15,4.40
2015,01,31,06,16,4.30
2015,01,31,06,17,4.40
2015,01,31,06,18,4.40
2015,01,31,06,19,4.40
2015,01,31,06,20,4.40
2015,01,31,06,21,4.40
2015,01,31,06,22,4.40
2015,01,31,06,23,4.40
2015,01,31,06,24,4.40
2015,01,31,06,25,4.40
2015,01,31,06,26,4.40
2015,01,31,06,27,4.40
2015,01,31,06,28,4.40
2015,01,31,06,29,4.40
2015,01,31,06,30,4.40
2015,01,31,06,31,4.40
2015,01,31,06,32,4.40
2015,01,31,06,33,4.40
2015,01,31,06,34,4.40
2015,01,31,06,35,4.40
2015,01,31,06,36,4.40
2015,01,31,06,37,4.30
2015,01,31,06,38,4.30
2015,01,31,06,39,4.30
2015,01,31,06,40,4.30
2015,01,31,06,41,4.20
2015,01,31,06,42,4.20
2015,01,31,06,43,4.20
2015,01,31,06,44,4.10
2015,01,31,06,45,4.10
2015,01,31,06,46,4.10
2015,01,31,06,47,4.10
2015,01,31,06,48,4.00
2015,01,31,06,49,4.00
2015,01,31,06,50,4.00
2015,01,31,06,51,3.90
2015,01,31,06,52,3.90
2015,01,31,06,53,3.90
2015,01,31,06,54,3.90
2015,01,31,06,55,3.90
2015,01,31,06,56,3.90
2015,01,31,06,57,3.90
2015,01,31,06,58,3.90
2015,01,31,06,59,3.90
2015,01,31,07,00,3.90
2015,01,31,07,01,3.90
2015,01,31,07,02,3.90
2015,01,31,07,03,3.90
2015,01,31,07,04,3.90
2015,01,31,07,05,3.90
2015,01,31,07,06,3.90
2015,01,31,07,07,3.90
2015,01,31,07,08,3.90
2015,01,31,07,09,3.90
2015,01,31,07,10,3.90
2015,01,31,07,11,4.00
2015,01,31,07,12,4.00
2015,01,31,07,13,4.00
2015,01,31,07,14,4.00
2015,01,31,07,15,4.00
2015,01,31,07,16,4.00
2015,01,31,07,17,4.00
2015,01,31,07,18,4.00
2015,01,31,07,19,4.00
2015,01,31,07,20,4.00
2015,01,31,07,21,4.00
2015,01,31,07,22,4.00
2015,01,31,07,23,4.10
2015,01,31,07,24,4.10
2015,01,31,07,25,4.10
2015,01,31,07,26,4.10
2015,01,31,07,27,4.10
2015,01,31,07,28,4.10
2015,01,31,07,29,4.10
2015,01,31,07,30,4.10
2015,01,31,07,31,4.10
2015,01,31,07,32,4.10
2015,01,31,07,33,4.10
2015,01,31,07,34,4.10
2015,01,31,07,35,4.10
2015,01,31,07,36,4.10
2015,01,31,07,37,4.10
2015,01,31,07,38,4.10
2015,01,31,07,39,4.10
2015,01,31,07,40,4.10
2015,01,31,07,41,4.10
2015,01,31,07,42,4.10
2015,01,31,07,43,4.10
2015,01,31,07,44,4.20
2015,01,31,07,45,4.20
2015,01,31,07,46,4.20
2015,01,31,07,47,4.20
2015,01,31,07,48,4.20
2015,01,31,07,49,4.20
2015,01,31,07,50,4.30
2015,01,31,07,51,4.30
2015,01,31,07,52,4.30
2015,01,31,07,53,4.30
2015,01,31,07,54,4.30
2015,01,31,07,55,4.40
2015,01,31,07,56,4.40
2015,01,31,07,57,4.40
2015,01,31,07,58,4.40
2015,01,31,07,59,4.40
2015,01,31,08,00,4.40
2015,01,31,08,01,4.40
2015,01,31,08,02,4.40
2015,01,31,08,03,4.40
2015,01,31,08,04,4.40
2015,01,31,08,05,4.30
2015,01,31,08,06,4.30
2015,01,31,08,07,4.30
2015,01,31,08,08,4.30
2015,01,31,08,09,4.30
2015,01,31,08,10,4.30
2015,01,31,08,11,4.30
2015,01,31,08,12,4.30
2015,01,31,08,13,4.30
2015,01,31,08,14,4.30
2015,01,31,08,15,4.30
2015,01,31,08,16,4.30
2015,01,31,08,17,4.30
2015,01,31,08,18,4.30
2015,01,31,08,19,4.30
2015,01,31,08,20,4.30
2015,01,31,08,21,4.30
2015,01,31,08,22,4.30
2015,01,31,08,23,4.30
2015,01,31,08,24,4.30
2015,01,31,08,25,4.30
2015,01,31,08,26,4.30
2015,01,31,08,27,4.30
2015,01,31,08,28,4.30
2015,01,31,08,29,4.20
2015,01,31,08,30,4.20
2015,01,31,08,31,4.20
2015,01,31,08,32,4.20
2015,01,31,08,33,4.20
2015,01,31,08,34,4.20
2015,01,31,08,35,4.20
2015,01,31,08,36,4.20
2015,01,31,08,37,4.20
2015,01,31,08,38,4.30
2015,01,31,08,39,4.30
2015,01,31,08,40,4.30
2015,01,31,08,41,4.30
2015,01,31,08,42,4.30
2015,01,31,08,43,4.30
2015,01,31,08,44,4.30
2015,01,31,08,45,4.30
2015,01,31,08,46,4.30
2015,01,31,08,47,4.30
2015,01,31,08,48,4.30
2015,01,31,08,49,4.40
2015,01,31,08,50,4.40
2015,01,31,08,51,4.40
2015,01,31,08,52,4.40
2015,01,31,08,53,4.40
2015,01,31,08,54,4.40
2015,01,31,08,55,4.40
2015,01,31,08,56,4.40
2015,01,31,08,57,4.40
2015,01,31,08,58,4.40
2015,01,31,08,59,4.40
2015,01,31,09,00,4.40
2015,01,31,09,01,4.50
2015,01,31,09,02,4.50
2015,01,31,09,03,4.50
2015,01,31,09,04,4.50
2015,01,31,09,05,4.50
2015,01,31,09,06,4.50
2015,01,31,09,07,4.60
2015,01,31,09,08,4.60
2015,01,31,09,09,4.60
2015,01,31,09,10,4.60
2015,01,31,09,11,4.60
2015,01,31,09,12,4.60
2015,01,31,09,13,4.60
2015,01,31,09,14,4.60
2015,01,31,09,15,4.60
2015,01,31,09,16,4.60
2015,01,31,09,17,4.60
2015,01,31,09,18,4.60
2015,01,31,09,19,4.60
2015,01,31,09,20,4.60
2015,01,31,09,21,4.60
2015,01,31,09,22,4.70
2015,01,31,09,23,4.70
2015,01,31,09,24,4.70
2015,01,31,09,25,4.70
2015,01,31,09,26,4.70
2015,01,31,09,27,4.70
2015,01,31,09,28,4.70
2015,01,31,09,29,4.70
2015,01,31,09,30,4.70
2015,01,31,09,31,4.80
2015,01,31,09,32,4.80
2015,01,31,09,33,4.80
2015,01,31,09,34,4.80
2015,01,31,09,35,4.80
2015,01,31,09,36,4.80
2015,01,31,09,37,4.80
2015,01,31,09,38,4.80
2015,01,31,09,39,4.90
2015,01,31,09,40,4.90
2015,01,31,09,41,4.90
2015,01,31,09,42,4.90
2015,01,31,09,43,5.00
2015,01,31,09,44,5.00
2015,01,31,09,45,5.00
2015,01,31,09,46,5.00
2015,01,31,09,47,5.10
2015,01,31,09,48,5.10
2015,01,31,09,49,5.10
2015,01,31,09,50,5.10
2015,01,31,09,51,5.10
2015,01,31,09,52,5.10
2015,01,31,09,53,5.10
2015,01,31,09,54,5.10
2015,01,31,09,55,5.20
2015,01,31,09,56,5.20
2015,01,31,09,57,5.20
2015,01,31,09,58,5.20
2015,01,31,09,59,5.20
2015,01,31,10,00,5.20
2015,01,31,10,01,5.30
2015,01,31,10,02,5.30
2015,01,31,10,03,5.30
2015,01,31,10,04,5.30
2015,01,31,10,05,5.40
2015,01,31,10,06,5.40
2015,01,31,10,07,5.40
2015,01,31,10,08,5.40
2015,01,31,10,09,5.50
2015,01,31,10,10,5.50
2015,01,31,10,11,5.60
2015,01,31,10,12,5.60
2015,01,31,10,13,5.60
2015,01,31,10,14,5.60
2015,01,31,10,15,5.60
2015,01,31,10,16,5.60
2015,01,31,10,17,5.60
2015,01,31,10,18,5.60
2015,01,31,10,19,5.60
2015,01,31,10,20,5.70
2015,01,31,10,21,5.70
2015,01,31,10,22,5.70
2015,01,31,10,23,5.70
2015,01,31,10,24,5.70
2015,01,31,10,25,5.70
2015,01,31,10,26,5.70
2015,01,31,10,27,5.70
2015,01,31,10,28,5.80
2015,01,31,10,29,5.80
2015,01,31,10,30,5.80
2015,01,31,10,31,5.80
2015,01,31,10,32,5.80
2015,01,31,10,33,5.80
2015,01,31,10,34,5.80
2015,01,31,10,35,5.80
2015,01,31,10,36,5.80
2015,01,31,10,37,5.80
2015,01,31,10,38,5.80
2015,01,31,10,39,5.80
2015,01,31,10,40,5.80
2015,01,31,10,41,5.80
2015,01,31,10,42,5.80
2015,01,31,10,43,5.80
2015,01,31,10,44,5.80
2015,01,31,10,45,5.80
2015,01,31,10,46,5.80
2015,01,31,10,47,5.80
2015,01,31,10,48,5.80
2015,01,31,10,49,5.80
2015,01,31,10,50,5.80
2015,01,31,10,51,5.90
2015,01,31,10,52,5.90
2015,01,31,10,53,5.90
2015,01,31,10,54,5.90
2015,01,31,10,55,5.90
2015,01,31,10,56,5.90
2015,01,31,10,57,5.90
2015,01,31,10,58,5.90
2015,01,31,10,59,5.90
2015,01,31,11,00,5.90
2015,01,31,11,01,5.90
2015,01,31,11,02,5.90
2015,01,31,11,03,5.90
2015,01,31,11,04,5.90
2015,01,31,11,05,6.00
2015,01,31,11,06,6.00
2015,01,31,11,07,5.90
2015,01,31,11,08,6.00
2015,01,31,11,09,5.90
2015,01,31,11,10,6.00
2015,01,31,11,11,6.00
2015,01,31,11,12,6.00
2015,01,31,11,13,6.00
2015,01,31,11,14,6.10
2015,01,31,11,15,6.10
2015,01,31,11,16,6.10
2015,01,31,11,17,6.10
2015,01,31,11,18,6.10
2015,01,31,11,19,6.10
2015,01,31,11,20,6.10
2015,01,31,11,21,6.10
2015,01,31,11,22,6.10
2015,01,31,11,23,6.20
2015,01,31,11,24,6.20
2015,01,31,11,25,6.20
2015,01,31,11,26,6.20
2015,01,31,11,27,6.20
2015,01,31,11,28,6.20
2015,01,31,11,29,6.20
2015,01,31,11,30,6.20
2015,01,31,11,31,6.20
2015,01,31,11,32,6.20
2015,01,31,11,33,6.20
2015,01,31,11,34,6.30
2015,01,31,11,35,6.30
2015,01,31,11,36,6.30
2015,01,31,11,37,6.30
2015,01,31,11,38,6.40
2015,01,31,11,39,6.40
2015,01,31,11,40,6.40
2015,01,31,11,41,6.50
2015,01,31,11,42,6.50
2015,01,31,11,43,6.50
2015,01,31,11,44,6.60
2015,01,31,11,45,6.60
2015,01,31,11,46,6.70
2015,01,31,11,47,6.70
2015,01,31,11,48,6.70
2015,01,31,11,49,6.80
2015,01,31,11,50,6.80
2015,01,31,11,51,6.80
2015,01,31,11,52,6.90
2015,01,31,11,53,6.90
2015,01,31,11,54,7.00
2015,01,31,11,55,7.00
2015,01,31,11,56,7.10
2015,01,31,11,57,7.10
2015,01,31,11,58,7.10
2015,01,31,11,59,7.10
2015,01,31,12,00,7.10
2015,01,31,12,01,7.20
2015,01,31,12,02,7.20
2015,01,31,12,03,7.30
2015,01,31,12,04,7.30
2015,01,31,12,05,7.30
2015,01,31,12,06,7.40
2015,01,31,12,07,7.40
2015,01,31,12,08,7.40
2015,01,31,12,09,7.40
2015,01,31,12,10,7.30
2015,01,31,12,11,7.30
2015,01,31,12,12,7.20
2015,01,31,12,13,7.20
2015,01,31,12,14,7.20
2015,01,31,12,15,7.20
2015,01,31,12,16,7.20
2015,01,31,12,17,7.20
2015,01,31,12,18,7.20
2015,01,31,12,19,7.20
2015,01,31,12,20,7.20
2015,01,31,12,21,7.20
2015,01,31,12,22,7.20
2015,01,31,12,23,7.20
2015,01,31,12,24,7.20
2015,01,31,12,25,7.30
2015,01,31,12,26,7.30
2015,01,31,12,27,7.30
2015,01,31,12,28,7.30
2015,01,31,12,29,7.30
2015,01,31,12,30,7.30
2015,01,31,12,31,7.20
2015,01,31,12,32,7.20
2015,01,31,12,33,7.20
2015,01,31,12,34,7.10
2015,01,31,12,35,7.10
2015,01,31,12,36,7.10
2015,01,31,12,37,7.10
2015,01,31,12,38,7.10
2015,01,31,12,39,7.10
2015,01,31,12,40,7.10
2015,01,31,12,41,7.10
2015,01,31,12,42,7.10
2015,01,31,12,43,7.10
2015,01,31,12,44,7.00
2015,01,31,12,45,7.00
2015,01,31,12,46,7.00
2015,01,31,12,47,7.10
2015,01,31,12,48,7.10
2015,01,31,12,49,7.10
2015,01,31,12,50,7.10
2015,01,31,12,51,7.10
2015,01,31,12,52,7.10
2015,01,31,12,53,7.10
2015,01,31,12,54,7.10
2015,01,31,12,55,7.10
2015,01,31,12,56,7.10
2015,01,31,12,57,7.10
2015,01,31,12,58,7.10
2015,01,31,12,59,7.10
2015,01,31,13,00,7.10
2015,01,31,13,01,7.10
2015,01,31,13,02,7.20
2015,01,31,13,03,7.20
2015,01,31,13,04,7.20
2015,01,31,13,05,7.20
2015,01,31,13,06,7.20
2015,01,31,13,07,7.20
2015,01,31,13,08,7.20
2015,01,31,13,09,7.20
2015,01,31,13,10,7.20
2015,01,31,13,11,7.20
2015,01,31,13,12,7.20
2015,01,31,13,13,7.30
2015,01,31,13,14,7.30
2015,01,31,13,15,7.30
2015,01,31,13,16,7.30
2015,01,31,13,17,7.40
2015,01,31,13,18,7.40
2015,01,31,13,19,7.40
2015,01,31,13,20,7.40
2015,01,31,13,21,7.40
2015,01,31,13,22,7.40
2015,01,31,13,23,7.40
2015,01,31,13,24,7.40
2015,01,31,13,25,7.40
2015,01,31,13,26,7.40
2015,01,31,13,27,7.40
2015,01,31,13,28,7.40
2015,01,31,13,29,7.40
2015,01,31,13,30,7.40
2015,01,31,13,31,7.40
2015,01,31,13,32,7.40
2015,01,31,13,33,7.40
2015,01,31,13,34,7.40
2015,01,31,13,35,7.40
2015,01,31,13,36,7.40
2015,01,31,13,37,7.40
2015,01,31,13,38,7.40
2015,01,31,13,39,7.50
2015,01,31,13,40,7.50
2015,01,31,13,41,7.50
2015,01,31,13,42,7.60
2015,01,31,13,43,7.60
2015,01,31,13,44,7.60
2015,01,31,13,45,7.60
2015,01,31,13,46,7.60
2015,01,31,13,47,7.70
2015,01,31,13,48,7.70
2015,01,31,13,49,7.70
2015,01,31,13,50,7.80
2015,01,31,13,51,7.80
2015,01,31,13,52,7.80
2015,01,31,13,53,7.80
2015,01,31,13,54,7.80
2015,01,31,13,55,7.80
2015,01,31,13,56,7.80
2015,01,31,13,57,7.80
2015,01,31,13,58,7.80
2015,01,31,13,59,7.80
2015,01,31,14,00,7.80
2015,01,31,14,01,7.80
2015,01,31,14,02,7.80
2015,01,31,14,03,7.80
2015,01,31,14,04,7.70
2015,01,31,14,05,7.70
2015,01,31,14,06,7.70
2015,01,31,14,07,7.70
2015,01,31,14,08,7.70
2015,01,31,14,09,7.70
2015,01,31,14,10,7.70
2015,01,31,14,11,7.80
2015,01,31,14,12,7.80
2015,01,31,14,13,7.80
2015,01,31,14,14,7.80
2015,01,31,14,15,7.80
2015,01,31,14,16,7.80
2015,01,31,14,17,7.80
2015,01,31,14,18,7.80
2015,01,31,14,19,7.80
2015,01,31,14,20,7.80
2015,01,31,14,21,7.80
2015,01,31,14,22,7.80
2015,01,31,14,23,7.80
2015,01,31,14,24,7.90
2015,01,31,14,25,7.90
2015,01,31,14,26,7.90
2015,01,31,14,27,7.90
2015,01,31,14,28,7.90
2015,01,31,14,29,7.90
2015,01,31,14,30,7.90
2015,01,31,14,31,8.00
2015,01,31,14,32,8.00
2015,01,31,14,33,8.00
2015,01,31,14,34,8.10
2015,01,31,14,35,8.10
2015,01,31,14,36,8.10
2015,01,31,14,37,8.10
2015,01,31,14,38,8.10
2015,01,31,14,39,8.10
2015,01,31,14,40,8.10
2015,01,31,14,41,8.10
2015,01,31,14,42,8.10
2015,01,31,14,43,8.10
2015,01,31,14,44,8.10
2015,01,31,14,45,8.10
2015,01,31,14,46,8.10
2015,01,31,14,47,8.10
2015,01,31,14,48,8.10
2015,01,31,14,49,8.20
2015,01,31,14,50,8.20
2015,01,31,14,51,8.20
2015,01,31,14,52,8.20
2015,01,31,14,53,8.20
2015,01,31,14,54,8.20
2015,01,31,14,55,8.20
2015,01,31,14,56,8.20
2015,01,31,14,57,8.20
2015,01,31,14,58,8.20
2015,01,31,14,59,8.20
2015,01,31,15,00,8.20
2015,01,31,15,01,8.20
2015,01,31,15,02,8.20
2015,01,31,15,03,8.20
2015,01,31,15,04,8.20
2015,01,31,15,05,8.20
2015,01,31,15,06,8.20
2015,01,31,15,07,8.20
2015,01,31,15,08,8.20
2015,01,31,15,09,8.20
2015,01,31,15,10,8.20
2015,01,31,15,11,8.20
2015,01,31,15,12,8.20
2015,01,31,15,13,8.20
2015,01,31,15,14,8.20
2015,01,31,15,15,8.20
2015,01,31,15,16,8.30
2015,01,31,15,17,8.30
2015,01,31,15,18,8.30
2015,01,31,15,19,8.30
2015,01,31,15,20,8.30
2015,01,31,15,21,8.30
2015,01,31,15,22,8.30
2015,01,31,15,23,8.30
2015,01,31,15,24,8.30
2015,01,31,15,25,8.30
2015,01,31,15,26,8.30
2015,01,31,15,27,8.30
2015,01,31,15,28,8.30
2015,01,31,15,29,8.30
2015,01,31,15,30,8.30
2015,01,31,15,31,8.30
2015,01,31,15,32,8.30
2015,01,31,15,33,8.30
2015,01,31,15,34,8.30
2015,01,31,15,35,8.30
2015,01,31,15,36,8.30
2015,01,31,15,37,8.20
2015,01,31,15,38,8.20
2015,01,31,15,39,8.20
2015,01,31,15,40,8.20
2015,01,31,15,41,8.20
2015,01,31,15,42,8.20
2015,01,31,15,43,8.20
2015,01,31,15,44,8.20
2015,01,31,15,45,8.20
2015,01,31,15,46,8.20
2015,01,31,15,47,8.20
2015,01,31,15,48,8.20
2015,01,31,15,49,8.20
2015,01,31,15,50,8.20
2015,01,31,15,51,8.20
2015,01,31,15,52,8.20
2015,01,31,15,53,8.20
2015,01,31,15,54,8.20
2015,01,31,15,55,8.20
2015,01,31,15,56,8.20
2015,01,31,15,57,8.10
2015,01,31,15,58,8.10
2015,01,31,15,59,8.10
2015,01,31,16,00,8.10
2015,01,31,16,01,8.10
2015,01,31,16,02,8.10
2015,01,31,16,03,8.10
2015,01,31,16,04,8.10
2015,01,31,16,05,8.10
2015,01,31,16,06,8.10
2015,01,31,16,07,8.10
2015,01,31,16,08,8.10
2015,01,31,16,09,8.10
2015,01,31,16,10,8.10
2015,01,31,16,11,8.10
2015,01,31,16,12,8.10
2015,01,31,16,13,8.10
2015,01,31,16,14,8.10
2015,01,31,16,15,8.10
2015,01,31,16,16,8.10
2015,01,31,16,17,8.00
2015,01,31,16,18,8.00
2015,01,31,16,19,8.00
2015,01,31,16,20,8.00
2015,01,31,16,21,8.00
2015,01,31,16,22,8.00
2015,01,31,16,23,7.90
2015,01,31,16,24,7.90
2015,01,31,16,25,7.90
2015,01,31,16,26,7.90
2015,01,31,16,27,7.90
2015,01,31,16,28,7.90
2015,01,31,16,29,7.90
2015,01,31,16,30,7.90
2015,01,31,16,31,7.90
2015,01,31,16,32,7.90
2015,01,31,16,33,7.90
2015,01,31,16,34,7.90
2015,01,31,16,35,7.90
2015,01,31,16,36,7.90
2015,01,31,16,37,7.80
2015,01,31,16,38,7.80
2015,01,31,16,39,7.80
2015,01,31,16,40,7.80
2015,01,31,16,41,7.80
2015,01,31,16,42,7.80
2015,01,31,16,43,7.80
2015,01,31,16,44,7.80
2015,01,31,16,45,7.80
2015,01,31,16,46,7.80
2015,01,31,16,47,7.80
2015,01,31,16,48,7.80
2015,01,31,16,49,7.80
2015,01,31,16,50,7.80
2015,01,31,16,51,7.80
2015,01,31,16,52,7.80
2015,01,31,16,53,7.80
2015,01,31,16,54,7.80
2015,01,31,16,55,7.80
2015,01,31,16,56,7.80
2015,01,31,16,57,7.80
2015,01,31,16,58,7.80
2015,01,31,16,59,7.80
2015,01,31,17,00,7.70
2015,01,31,17,01,7.70
2015,01,31,17,02,7.70
2015,01,31,17,03,7.70
2015,01,31,17,04,7.70
2015,01,31,17,05,7.70
2015,01,31,17,06,7.70
2015,01,31,17,07,7.70
2015,01,31,17,08,7.70
2015,01,31,17,09,7.60
2015,01,31,17,10,7.60
2015,01,31,17,11,7.60
2015,01,31,17,12,7.60
2015,01,31,17,13,7.60
2015,01,31,17,14,7.60
2015,01,31,17,15,7.60
2015,01,31,17,16,7.60
2015,01,31,17,17,7.60
2015,01,31,17,18,7.60
2015,01,31,17,19,7.60
2015,01,31,17,20,7.50
2015,01,31,17,21,7.50
2015,01,31,17,22,7.50
2015,01,31,17,23,7.50
2015,01,31,17,24,7.50
2015,01,31,17,25,7.40
2015,01,31,17,26,7.40
2015,01,31,17,27,7.40
2015,01,31,17,28,7.40
2015,01,31,17,29,7.40
2015,01,31,17,30,7.40
2015,01,31,17,31,7.40
2015,01,31,17,32,7.40
2015,01,31,17,33,7.40
2015,01,31,17,34,7.40
2015,01,31,17,35,7.40
2015,01,31,17,36,7.30
2015,01,31,17,37,7.30
2015,01,31,17,38,7.30
2015,01,31,17,39,7.30
2015,01,31,17,40,7.30
2015,01,31,17,41,7.30
2015,01,31,17,42,7.30
2015,01,31,17,43,7.30
2015,01,31,17,44,7.30
2015,01,31,17,45,7.30
2015,01,31,17,46,7.30
2015,01,31,17,47,7.30
2015,01,31,17,48,7.30
2015,01,31,17,49,7.30
2015,01,31,17,50,7.30
2015,01,31,17,51,7.30
2015,01,31,17,52,7.30
2015,01,31,17,53,7.30
2015,01,31,17,54,7.30
2015,01,31,17,55,7.30
2015,01,31,17,56,7.30
2015,01,31,17,57,7.30
2015,01,31,17,58,7.20
2015,01,31,17,59,7.30
2015,01,31,18,00,7.20
2015,01,31,18,01,7.20
2015,01,31,18,02,7.20
2015,01,31,18,03,7.20
2015,01,31,18,04,7.20
2015,01,31,18,05,7.20
2015,01,31,18,06,7.20